カタログに戻る

STARLINK-32809

運用中通信VLEO
NORAD 62849·PAYLOAD·🇺🇸 United States

打ち上げ Jan 27, 2025 から Cape Canaveral Space Force Station

Loading…

次のパス (今後24時間)

TLE

最新Source: CelesTrak SupGP

元期: Sep 14, 2026, 21:18 UTC

1 62849C 25019W   26257.88798611  .00017251  00000+0  62509-3 0  2573
2 62849  42.9997 100.1842 0001494 271.6971 312.0120 15.27556002    11

AllMySatでSTARLINK-32809をリアルタイム追跡

Download on the App Store